This demonstration page uses our WeatherBlox Daily Observations layout. Learn more.

Left ArrowRight Arrow

Hourly Observations for June 16, 2019

Temp ( °F °C ) Dew Point ( °F °C ) Humidity (%) Winds ( mph kmh ) Pressure ( in mb ) Visibility ( mi km ) Precip ( " mm )
12:59 am 00:59 Mostly Clear 71 21.7 61 16.1 71 71 SSW 13 20 30.09 1019 10 16 0.00 0.00
1:59 am 01:59 Partly Cloudy 69 20.6 60 15.6 73 73 S 7 11 30.07 1018 10 16 0.00 0.00
2:59 am 02:59 Mostly Clear 69 20.6 60 15.6 73 73 SSW 10 17 30.06 1018 10 16 0.00 0.00
3:59 am 03:59 Partly Cloudy 69 20.6 60 15.6 73 73 SSW 12 19 30.04 1017 10 16 0.00 0.00
4:59 am 04:59 Partly Cloudy 67 19.4 61 16.1 81 81 SSW 7 11 30.03 1017 10 16 0.00 0.00
5:59 am 05:59 Partly Cloudy 67 19.4 61 16.1 81 81 SSW 8 13 30.04 1017 10 16 0.00 0.00
6:59 am 06:59 Partly Cloudy 68 20 62 16.7 81 81 SSW 10 17 30.05 1018 10 16 0.00 0.00
7:59 am 07:59 Partly Cloudy 71 21.7 64 17.8 79 79 SSW 10 17 30.04 1017 10 16 0.00 0.00
8:59 am 08:59 Partly Cloudy 75 23.9 66 18.9 74 74 SW 13 20 30.04 1017 10 16 0.00 0.00
9:59 am 09:59 Partly Cloudy 79 26.1 67 19.4 67 67 SW 12 19 30.03 1017 10 16 0.00 0.00
10:59 am 10:59 Partly Cloudy 82 27.8 66 18.9 58 58 SW 10 17 30.02 1017 10 16 0.00 0.00
11:59 am 11:59 Partly Cloudy 84 28.9 66 18.9 55 55 SW 15 24 30.01 1016 10 16 0.00 0.00
12:59 pm 12:59 Partly Cloudy 86 30 67 19.4 53 53 SW 13 20 29.99 1016 10 16 0.00 0.00
1:59 pm 13:59 Partly Cloudy 87 30.6 67 19.4 51 51 SW 14 22 29.97 1015 10 16 0.00 0.00
2:59 pm 14:59 Partly Cloudy 88 31.1 67 19.4 50 50 SW 15 24 29.96 1015 10 16 0.00 0.00
3:59 pm 15:59 Partly Cloudy 88 31.1 67 19.4 50 50 SSW 16 26 29.94 1014 10 16 0.00 0.00
4:59 pm 16:59 Partly Cloudy 88 31.1 68 20 52 52 SW 16 26 29.92 1013 10 16 0.00 0.00
5:59 pm 17:59 Partly Cloudy 87 30.6 68 20 53 53 SW 10 17 29.93 1014 10 16 0.00 0.00
6:59 pm 18:59 Partly Cloudy 86 30 67 19.4 53 53 SW 10 17 29.93 1014 10 16 0.00 0.00
7:59 pm 19:59 Partly Cloudy 84 28.9 67 19.4 57 57 SW 8 13 29.94 1014 10 16 0.00 0.00
8:59 pm 20:59 Partly Cloudy 83 28.3 66 18.9 57 57 SSW 8 13 29.93 1014 10 16 0.00 0.00
9:59 pm 21:59 Partly Cloudy 82 27.8 66 18.9 58 58 SW 10 17 29.95 1014 10 16 0.00 0.00
10:59 pm 22:59 Partly Cloudy 80 26.7 66 18.9 62 62 SSW 7 11 29.97 1015 10 16 0.00 0.00
11:59 pm 23:59 Clear 79 26.1 68 20 69 69 SSW 12 19 29.97 1015 10 16 0.00 0.00

Powered by AerisWeather